[[{"header":{"parameterUnit":"m.s-1","parameterCategory":1,"la1":30.2991,"la2":30.254,"lo1":-89.0895,"lo2":-89.0444,"dy":0.0017,"dx":0.0017,"nx":28,"ny":28,"refTime":"2023-08-18T09:00:00:Z","depth":0,"parameterNumber":2,"parameterNumberName":"U-component_of_WINDS"},"data":[0,0,0,0,0,0,0,0,0,0,0,0,0,0,0,0,0,0,0,0,0,0,0,0,0,0,0,0,0,0,0,0,0,0,0,0,0,0,0,0,0,0,0,0,0,0,0,0,0,0,0,0,0,0,0,0,0,0,3.1521,3.1522,0,3.1597,3.1598,3.1599,3.1607,3.1606,3.1605,3.1604,3.1684,3.1687,3.1689,0,0,0,0,0,0,0,0,0,0,0,0,0,3.1385,3.1387,3.1521,3.1522,3.1523,3.1597,3.1598,3.1599,3.1607,3.1606,3.1605,3.1604,3.1683,3.1686,3.169,0,0,0,0,0,0,0,0,0,0,0,0,0,3.1451,3.1388,3.1521,3.1536,3.1538,3.1597,3.1598,3.16,3.1607,3.1606,3.1605,3.1604,3.1682,3.1686,3.169,3.174,0,0,3.1703,3.1705,0,0,0,0,0,0,0,0,3.1447,3.1456,3.1533,3.1535,3.1537,3.1591,3.1579,3.1647,3.1607,3.1581,3.1604,3.1603,3.1654,3.1661,3.1677,3.1744,3.1747,3.1704,3.1706,3.1708,3.1709,0,0,0,0,0,0,0,3.1442,3.1453,3.1551,3.1534,3.1537,3.1539,3.1547,3.1592,3.1623,3.1583,3.1584,3.1593,3.1655,3.1673,3.1679,3.1749,3.1703,3.1707,3.171,3.1712,3.1862,3.1863,0,0,0,0,0,0,3.1435,3.1449,3.1549,3.1554,3.1488,3.1543,3.1552,3.1575,3.1623,3.1629,3.1594,3.1593,3.1667,3.1674,3.1682,3.1745,3.1708,3.1712,3.1714,3.186,3.1862,3.1864,0,0,0,0,0,0,3.1432,3.1444,3.1546,3.1501,3.1515,3.1546,3.1573,3.1577,3.1595,3.1631,3.1636,3.1606,3.1666,3.1676,3.1726,3.1748,3.1714,3.1718,3.1859,3.1861,3.1863,3.187,0,0,0,0,0,0,3.1428,3.1442,3.1461,3.1502,3.1517,3.1588,3.1574,3.158,3.1603,3.1602,3.1644,3.165,3.1666,3.172,3.173,3.1753,3.1721,3.1857,3.186,3.1862,3.1868,3.1872,3.1876,0,0,0,0,0,3.1423,3.146,3.1462,3.1474,3.1541,3.1589,3.1598,3.1615,3.1604,3.1624,3.1647,3.1649,3.1744,3.1725,3.1737,3.1761,3.1855,3.1859,3.1862,3.1866,3.1872,3.1876,0,0,0,0,0,0,3.1422,3.1466,3.1468,3.152,3.155,3.159,3.1615,3.1619,3.1654,3.1652,3.1672,3.1682,3.1731,3.1751,3.1729,3.1813,3.1799,3.1804,3.1798,3.1803,3.1807,3.1801,3.1725,0,0,0,0,0,3.1427,3.1462,3.1499,3.1541,3.1556,3.1583,3.1605,3.1615,3.1648,3.1661,3.1687,3.172,3.1757,3.1781,3.1817,3.1871,3.1881,3.1894,3.1898,3.1901,3.1906,3.1937,3.1944,3.1874,3.1874,3.1874,0,0,3.144,3.1468,3.1489,3.1541,3.1566,3.1603,3.1594,3.1632,3.166,3.1667,3.1716,3.1736,3.1774,3.1826,3.1851,3.1845,3.1927,3.1905,3.1907,3.1911,3.1941,3.1948,3.1953,3.1876,3.1876,3.1875,0,0,3.1481,3.1505,3.1543,3.1569,3.1607,3.1624,3.1634,3.1673,3.1687,3.1736,3.1743,3.1776,3.1839,3.1866,3.1888,3.194,3.1944,3.1952,3.1972,3.2002,3.2008,3.2013,3.2032,3.2039,3.1956,3.1956,3.1956,0,3.1491,3.1545,3.1562,3.1601,3.1625,3.1633,3.1672,3.1696,3.1744,3.1761,3.1753,3.1834,3.1859,3.1919,3.1932,3.1949,3.1961,3.1947,3.2005,3.2011,3.2016,3.2034,3.2042,3.1957,3.1957,3.1957,3.1957,0,3.1557,3.1594,3.1621,3.1667,3.1694,3.1732,3.1756,3.1781,3.179,3.1809,3.1859,3.1891,3.1934,3.1949,3.1957,3.201,3.2005,3.2001,3.1987,3.2023,3.2041,3.2048,3.1958,3.1958,3.1958,3.1958,0,0,3.1599,3.1654,3.1664,3.1685,3.1728,3.1758,3.1798,3.184,3.1862,3.1895,3.1929,3.1983,3.198,3.2005,3.2017,3.2044,3.2085,3.2037,3.2038,3.2045,3.2145,3.2148,3.2156,3.2087,3.2088,3.209,3.2142,0,3.1645,3.1715,3.1732,3.1793,3.1829,3.1838,3.1873,3.1903,3.1922,3.1956,3.1977,3.2016,3.2008,3.2024,3.205,3.2074,3.2105,3.207,3.212,3.2122,3.2111,3.2166,3.2169,3.2217,3.215,3.2151,3.2152,0,3.1708,3.1743,3.1807,3.1846,3.1862,3.1893,3.1933,3.1965,3.2001,3.2013,3.2041,3.2051,3.2094,3.2077,3.2137,3.2113,3.2135,3.215,3.2152,3.2158,3.2139,3.2173,3.2233,3.224,3.2163,3.2162,3.2161,0,3.1734,3.1796,3.1843,3.1861,3.1908,3.193,3.195,3.1984,3.2009,3.2045,3.2061,3.2101,3.2123,3.2155,3.2176,3.2162,3.2234,3.2219,3.2246,3.2246,3.2261,3.226,3.2325,3.2274,3.2274,3.2274,3.2274,0,3.1784,3.1823,3.1855,3.1884,3.1928,3.1948,3.1992,3.2013,3.2043,3.2077,3.2087,3.2119,3.2144,3.2179,3.2196,3.2244,3.2253,3.2265,3.2269,3.2264,3.2263,3.2279,3.2276,3.2276,3.2276,3.2275,3.2275,0,3.182,3.1842,3.1894,3.1934,3.1946,3.1977,3.2012,3.204,3.206,3.2103,3.2114,3.2145,3.2187,3.2211,3.2264,3.2275,3.2328,3.233,3.2316,3.2318,3.2344,3.2341,3.2422,3.2434,3.2374,3.2375,3.2375,0,3.185,3.1881,3.1924,3.1948,3.1969,3.2006,3.2031,3.2052,3.2078,3.2121,3.2145,3.2188,3.2223,3.229,3.2318,3.2359,3.2363,3.2388,3.2369,3.2364,3.2364,3.2362,3.2366,3.2392,3.2392,3.2393,3.2393,0,3.1903,3.1913,3.1949,3.1989,3.2018,3.2051,3.2083,3.2102,3.2128,3.2157,3.22,3.2228,3.2282,3.2325,3.2368,3.239,3.2397,3.2399,3.2407,3.2403,3.2394,3.24,3.2326,3.2397,3.2396,3.2396,3.2396,3.2396,3.1938,3.1966,3.2001,3.2041,3.2067,3.2097,3.2127,3.215,3.2186,3.2232,3.2242,3.2288,3.2324,3.2383,3.2406,3.2443,3.2438,3.245,3.2454,3.2456,3.2458,3.2388,3.2451,3.2451,3.2451,3.2451,3.2451,0,3.1992,3.2015,3.2051,3.2096,3.2128,3.213,3.2166,3.2193,3.2233,3.2266,3.23,3.235,3.2392,3.2423,3.2466,3.249,3.2494,3.25,3.2499,3.2504,3.2459,3.2448,3.2496,3.2496,3.2496,3.2496,3.2496,3.2496,3.2024,3.2071,3.2085,3.2147,3.217,3.2214,3.2235,3.2263,3.229,3.2345,3.238,3.2399,3.2432,3.2477,3.2516,3.2524,3.254,3.2546,3.2555,3.2512,3.2507,3.2503,3.2492,3.2549,3.255,3.2597,3.2598,3.2598]},{"header":{"parameterUnit":"m.s-1","parameterCategory":1,"la1":30.2991,"la2":30.254,"lo1":-89.0895,"lo2":-89.0444,"dy":0.0017,"dx":0.0017,"nx":28,"ny":28,"refTime":"2023-08-18T09:00:00:Z","depth":0,"parameterNumber":3,"parameterNumberName":"V-component_of_WINDS"},"data":[0,0,0,0,0,0,0,0,0,0,0,0,0,0,0,0,0,0,0,0,0,0,0,0,0,0,0,0,0,0,0,0,0,0,0,0,0,0,0,0,0,0,0,0,0,0,0,0,0,0,0,0,0,0,0,0,0,0,-0.559,-0.559,0,-0.5583,-0.5583,-0.5583,-0.557,-0.557,-0.5569,-0.5569,-0.5562,-0.5562,-0.5562,0,0,0,0,0,0,0,0,0,0,0,0,0,-0.5596,-0.5596,-0.559,-0.559,-0.559,-0.5583,-0.5583,-0.5583,-0.557,-0.557,-0.5569,-0.5569,-0.5562,-0.5562,-0.5562,0,0,0,0,0,0,0,0,0,0,0,0,0,-0.5591,-0.5596,-0.559,-0.5583,-0.5582,-0.5583,-0.5583,-0.5583,-0.557,-0.557,-0.5569,-0.5569,-0.5562,-0.5562,-0.5562,-0.5569,0,0,-0.5562,-0.5562,0,0,0,0,0,0,0,0,-0.5592,-0.5591,-0.5584,-0.5584,-0.5583,-0.5577,-0.5582,-0.5578,-0.557,-0.5575,-0.5569,-0.5569,-0.5567,-0.5567,-0.5566,-0.5569,-0.5569,-0.5562,-0.5562,-0.5562,-0.5562,0,0,0,0,0,0,0,-0.5592,-0.5592,-0.5587,-0.5584,-0.5583,-0.5581,-0.558,-0.5581,-0.5573,-0.5574,-0.5573,-0.5573,-0.5567,-0.5566,-0.5566,-0.5569,-0.5562,-0.5562,-0.5562,-0.5562,-0.5579,-0.5579,0,0,0,0,0,0,-0.5593,-0.5592,-0.5588,-0.5587,-0.5586,-0.5581,-0.558,-0.5579,-0.5573,-0.5572,-0.5573,-0.5572,-0.5566,-0.5566,-0.5566,-0.5575,-0.5562,-0.5562,-0.5562,-0.5579,-0.5579,-0.5579,0,0,0,0,0,0,-0.5593,-0.5593,-0.5588,-0.5589,-0.5588,-0.5581,-0.5581,-0.5579,-0.5579,-0.5572,-0.5571,-0.5574,-0.5566,-0.5566,-0.5569,-0.5575,-0.5562,-0.5562,-0.5578,-0.5579,-0.5579,-0.5593,0,0,0,0,0,0,-0.5594,-0.5593,-0.5595,-0.5589,-0.5588,-0.5591,-0.5581,-0.5579,-0.5579,-0.5577,-0.5572,-0.5571,-0.5566,-0.5569,-0.5569,-0.5574,-0.5562,-0.5578,-0.5578,-0.5579,-0.5592,-0.5594,-0.5596,0,0,0,0,0,-0.5594,-0.5599,-0.5595,-0.5595,-0.5591,-0.5591,-0.5591,-0.5584,-0.5579,-0.5582,-0.5578,-0.5571,-0.5574,-0.5569,-0.5569,-0.5575,-0.5577,-0.5578,-0.5579,-0.5591,-0.5594,-0.5596,0,0,0,0,0,0,-0.5606,-0.5598,-0.5594,-0.5597,-0.5595,-0.5589,-0.5592,-0.5587,-0.5586,-0.5585,-0.5577,-0.5576,-0.558,-0.5578,-0.5573,-0.5582,-0.5575,-0.5576,-0.5584,-0.5586,-0.5588,-0.5589,-0.5562,0,0,0,0,0,-0.5609,-0.5609,-0.5603,-0.5607,-0.5606,-0.5599,-0.5599,-0.5594,-0.5591,-0.559,-0.5587,-0.5584,-0.5585,-0.5585,-0.5585,-0.5592,-0.5591,-0.5595,-0.5597,-0.5599,-0.56,-0.5605,-0.5607,-0.5583,-0.5583,-0.5583,0,0,-0.5615,-0.5611,-0.5612,-0.5609,-0.5606,-0.5608,-0.5598,-0.56,-0.5601,-0.5591,-0.5594,-0.5591,-0.5588,-0.5594,-0.5596,-0.5592,-0.5607,-0.56,-0.5601,-0.5602,-0.5606,-0.5608,-0.561,-0.5583,-0.5583,-0.5583,0,0,-0.5627,-0.5624,-0.5627,-0.5625,-0.5622,-0.5618,-0.5619,-0.5614,-0.5612,-0.5615,-0.5608,-0.5609,-0.561,-0.5608,-0.5608,-0.5622,-0.5616,-0.5622,-0.5632,-0.5636,-0.5638,-0.564,-0.5646,-0.5648,-0.5623,-0.5623,-0.5623,0,-0.5636,-0.5637,-0.563,-0.5632,-0.5632,-0.5623,-0.5627,-0.5625,-0.5622,-0.5622,-0.5618,-0.562,-0.5617,-0.5623,-0.5626,-0.5625,-0.5627,-0.5622,-0.5638,-0.564,-0.5641,-0.5647,-0.5649,-0.5624,-0.5623,-0.5623,-0.5623,0,-0.5648,-0.5649,-0.5652,-0.565,-0.565,-0.5653,-0.5647,-0.5648,-0.5644,-0.564,-0.5644,-0.5641,-0.5641,-0.5642,-0.5638,-0.5648,-0.5645,-0.564,-0.5632,-0.5645,-0.565,-0.5652,-0.5625,-0.5624,-0.5624,-0.5624,0,0,-0.5666,-0.5661,-0.5662,-0.5662,-0.5658,-0.5659,-0.5663,-0.5663,-0.5664,-0.5663,-0.5666,-0.5668,-0.5663,-0.5662,-0.5658,-0.5662,-0.5675,-0.5656,-0.5656,-0.566,-0.5687,-0.5692,-0.5694,-0.5671,-0.5671,-0.5672,-0.5688,0,-0.5678,-0.5684,-0.5678,-0.5685,-0.5686,-0.5679,-0.5682,-0.5681,-0.5678,-0.568,-0.5677,-0.5678,-0.5671,-0.5671,-0.5675,-0.5672,-0.568,-0.5671,-0.5675,-0.5675,-0.5677,-0.5697,-0.5701,-0.5717,-0.5689,-0.569,-0.569,0,-0.5693,-0.5693,-0.5699,-0.5697,-0.5697,-0.57,-0.5701,-0.5702,-0.5701,-0.5699,-0.5699,-0.5694,-0.5698,-0.569,-0.5697,-0.5691,-0.5692,-0.5691,-0.5692,-0.5692,-0.5684,-0.5699,-0.5721,-0.5724,-0.5693,-0.5693,-0.5693,0,-0.5707,-0.5708,-0.5713,-0.5713,-0.5709,-0.5712,-0.5711,-0.5709,-0.571,-0.5711,-0.5712,-0.5712,-0.5713,-0.5715,-0.571,-0.5705,-0.5718,-0.5709,-0.5717,-0.5717,-0.572,-0.572,-0.5744,-0.572,-0.572,-0.572,-0.572,0,-0.5721,-0.5726,-0.572,-0.5723,-0.5728,-0.5722,-0.5728,-0.5726,-0.5726,-0.5729,-0.5722,-0.5725,-0.5719,-0.5722,-0.5719,-0.5726,-0.5726,-0.5725,-0.5724,-0.5726,-0.5726,-0.5727,-0.5726,-0.5721,-0.5721,-0.572,-0.572,0,-0.5738,-0.5734,-0.5739,-0.5736,-0.5735,-0.574,-0.5737,-0.574,-0.5738,-0.5742,-0.5743,-0.5739,-0.5742,-0.5738,-0.5741,-0.5739,-0.5748,-0.5745,-0.5749,-0.5748,-0.5757,-0.5756,-0.5782,-0.5786,-0.5759,-0.5759,-0.5759,0,-0.5748,-0.5751,-0.5749,-0.5751,-0.575,-0.5753,-0.5754,-0.5749,-0.575,-0.575,-0.5754,-0.5757,-0.5759,-0.5764,-0.5762,-0.5765,-0.5763,-0.5772,-0.5763,-0.5765,-0.5764,-0.5764,-0.5765,-0.5773,-0.5774,-0.5774,-0.5774,0,-0.5766,-0.5764,-0.5766,-0.5767,-0.5769,-0.577,-0.577,-0.5772,-0.5767,-0.5769,-0.5773,-0.5774,-0.5778,-0.5781,-0.5783,-0.5783,-0.5778,-0.5777,-0.5779,-0.5781,-0.5784,-0.5784,-0.5754,-0.5777,-0.5776,-0.5776,-0.5776,-0.5776,-0.578,-0.5783,-0.5783,-0.5785,-0.5785,-0.5786,-0.579,-0.5788,-0.5791,-0.5793,-0.579,-0.5795,-0.5795,-0.5797,-0.5798,-0.5802,-0.5798,-0.5801,-0.5802,-0.5803,-0.5805,-0.5782,-0.5802,-0.5802,-0.5802,-0.5802,-0.5802,0,-0.5798,-0.5798,-0.58,-0.5802,-0.5804,-0.58,-0.58,-0.5803,-0.5807,-0.5808,-0.581,-0.5815,-0.5819,-0.5817,-0.5821,-0.5824,-0.5823,-0.5826,-0.5826,-0.5826,-0.5807,-0.5806,-0.5827,-0.5827,-0.5827,-0.5827,-0.5827,-0.5827,-0.5808,-0.5815,-0.5813,-0.582,-0.5819,-0.5824,-0.5825,-0.5826,-0.5827,-0.5832,-0.5835,-0.5835,-0.5835,-0.5839,-0.5842,-0.5842,-0.5844,-0.5848,-0.5847,-0.583,-0.5827,-0.5825,-0.5823,-0.5848,-0.5848,-0.5865,-0.5866,-0.5866]}]]